Regional Weather Roundup
Issued by NWS

Home | Current Version | Previous Version | Graphics & Text | Print | Product List | Glossary On
Versions: 1 2 3 4 5 6 7 8 9 10 11 12 13 14 15 16 17 18 19 20 21 22 23 24 25 26 27 28 29 30 31 32 33 34 35 36 37 38 39 40 41 42 43 44 45 46 47 48 49 50
000
ASUS43 KLMK 270810
RWRKY
KENTUCKY REGIONAL WEATHER ROUNDUP
NATIONAL WEATHER SERVICE LOUISVILLE KY
300 AM EST FRI FEB 27 2015

NOTE "FAIR" INDICATES FEW OR NO CLOUDS BELOW 12,000 FEET
WITH NO SIGNIFICANT WEATHER AND/OR OBSTRUCTIONS TO VISIBILITY.

KYZ001>023-026-027-061>063-070>075-270900-
WESTERN AND SOUTH CENTRAL KENTUCKY

CITY           SKY/WX    TMP DP  RH WIND       PRES   REMARKS
PADUCAH        CLEAR     18  10  71 N9        30.50R WCI   7
HENDERSON      CLOUDY    18   7  62 N7        30.49R WCI   8
OWENSBORO      CLEAR     16   7  67 N6        30.48R WCI   8
HOPKINSVILLE   CLEAR     18  11  74 N8        30.45R WCI   8
BOWLING GREEN  PTCLDY    21  13  71 N6        30.43R WCI  13
GLASGOW        CLOUDY    19  10  68 N10       30.41R WCI   8
$$

KYZ024-025-028>034-038-045-046-053-270900-
NORTH CENTRAL KENTUCKY

CITY           SKY/WX    TMP DP  RH WIND       PRES   REMARKS
LOUISVILLE/SDF FLURRIES  18  10  71 N7        30.44R WCI   9
LOUISVILLE/LOU CLOUDY    17   8  67 NW5       30.44R WCI  10
FORT KNOX      FLURRIES  16   8  71 N3        30.40R
$$

KYZ035>037-039>044-047>052-055>060-089>105-270900-
NORTHEAST KENTUCKY

CITY           SKY/WX    TMP DP  RH WIND       PRES   REMARKS
LEXINGTON      CLEAR     11   5  77 N6        30.38R WCI   1
COVINGTON      FLURRIES  13   6  74 CALM      30.38R
FRANKFORT      CLEAR     10   4  76 N3        30.38R
$$

KYZ054-064>069-076>088-106>120-270900-
SOUTHEAST KENTUCKY

CITY           SKY/WX    TMP DP  RH WIND       PRES   REMARKS
JACKSON        LGT SNOW  18  11  74 VRB7      30.29R WCI   9
LONDON         CLOUDY    21  12  68 N13       30.31R WCI   9
SOMERSET       FLURRIES  19  14  79 N8        30.36R WCI   9
MIDDLESBORO    CLOUDY    27  21  78 NW7       30.26R WCI  20
MONTICELLO     FLURRIES  21  16  81 N12       30.37R WCI   9
$$



USA.gov is the U.S. government's official web portal to all federal, state and local government web resources and services.